SWA218 KMDW-MMUN

Flight info

Callsign SWA218
Flight time 3h 22m
Altitude 38000
Route BACEN DCT BLOKR DCT BEKKI DCT ENL DCT MEMFS DCT MCB DCT WAVEZ DCT LEV A770 KEHLI UL209 BETAS DCT VOMAR
Aircraft B738/M-SADE2E3GIJ4RWZ/LB1D1

Departure

Time 2026-05-06 22:12
Airport Chicago Midway International Airport (KMDW)

Arrival

Time 2026-05-07 01:34
Airport Cancún International Airport (MMUN)
Time Latitude Longitude Altitude Speed Heading
2026-05-06 20:26 41.78626 -87.74643 628 ft 0 kts 70°
2026-05-06 22:04 41.78620 -87.74665 633 ft 3 kts 70°
2026-05-06 22:04 41.78613 -87.74689 634 ft 3 kts 70°
2026-05-06 22:04 41.78607 -87.74712 630 ft 3 kts 70°
2026-05-06 22:04 41.78606 -87.74716 629 ft 0 kts 70°
2026-05-06 22:07 41.78604 -87.74712 629 ft 1 kts 108°
2026-05-06 22:07 41.78599 -87.74707 628 ft 1 kts 137°
2026-05-06 22:07 41.78598 -87.74706 628 ft 0 kts 137°
2026-05-06 22:08 41.78581 -87.74711 631 ft 3 kts 188°
2026-05-06 22:08 41.78547 -87.74697 633 ft 9 kts 143°
2026-05-06 22:08 41.78482 -87.74609 628 ft 15 kts 134°
2026-05-06 22:09 41.78411 -87.74508 628 ft 15 kts 133°
2026-05-06 22:09 41.78344 -87.74411 631 ft 14 kts 134°
2026-05-06 22:09 41.78259 -87.74364 633 ft 13 kts 162°
2026-05-06 22:09 41.78179 -87.74310 631 ft 13 kts 171°
2026-05-06 22:10 41.78091 -87.74301 632 ft 13 kts 176°
2026-05-06 22:10 41.78012 -87.74304 631 ft 8 kts 189°
2026-05-06 22:10 41.77965 -87.74342 635 ft 8 kts 224°
2026-05-06 22:10 41.77947 -87.74405 627 ft 8 kts 301°
2026-05-06 22:11 41.77952 -87.74412 627 ft 0 kts 313°
2026-05-06 22:11 41.78023 -87.74510 631 ft 48 kts 313°
2026-05-06 22:11 41.78447 -87.75109 633 ft 126 kts 314°
2026-05-06 22:11 41.79211 -87.76079 991 ft 161 kts 314°
2026-05-06 22:12 41.79964 -87.77033 2311 ft 141 kts 306°
2026-05-06 22:12 41.80579 -87.78136 2874 ft 160 kts 304°
2026-05-06 22:12 41.81319 -87.79418 3150 ft 187 kts 306°
2026-05-06 22:12 41.82060 -87.80917 3489 ft 198 kts 287°
2026-05-06 22:13 41.81944 -87.82757 3940 ft 214 kts 246°
2026-05-06 22:13 41.80796 -87.84230 4175 ft 249 kts 211°
2026-05-06 22:13 41.79138 -87.85115 4768 ft 261 kts 204°
2026-05-06 22:13 41.77425 -87.85885 5475 ft 265 kts 202°
2026-05-06 22:14 41.75665 -87.86659 6273 ft 267 kts 202°
2026-05-06 22:14 41.73899 -87.87447 7126 ft 269 kts 203°
2026-05-06 22:14 41.72119 -87.88254 8098 ft 270 kts 203°
2026-05-06 22:14 41.70328 -87.89077 9046 ft 273 kts 203°
2026-05-06 22:15 41.68522 -87.89916 9978 ft 275 kts 203°
2026-05-06 22:15 41.66707 -87.90766 10602 ft 289 kts 204°
2026-05-06 22:15 41.64726 -87.91704 10803 ft 315 kts 204°
2026-05-06 22:15 41.62585 -87.92719 10999 ft 338 kts 204°
2026-05-06 22:16 41.60294 -87.93802 11336 ft 355 kts 204°
2026-05-06 22:16 41.57944 -87.94904 12031 ft 360 kts 204°
2026-05-06 22:16 41.55574 -87.96014 12873 ft 360 kts 205°
2026-05-06 22:16 41.53199 -87.97127 13727 ft 361 kts 206°
2026-05-06 22:17 41.50844 -87.98234 14438 ft 364 kts 206°
2026-05-06 22:17 41.48445 -87.99362 15128 ft 367 kts 206°
2026-05-06 22:17 41.46024 -88.00502 15800 ft 371 kts 207°
2026-05-06 22:17 41.43578 -88.01651 16479 ft 374 kts 207°
2026-05-06 22:18 41.41112 -88.02807 17163 ft 377 kts 206°
2026-05-06 22:18 41.38573 -88.03819 17821 ft 384 kts 203°
2026-05-06 22:18 41.35962 -88.04694 18441 ft 389 kts 202°
2026-05-06 22:18 41.33317 -88.05541 18996 ft 392 kts 202°
2026-05-06 22:19 41.30653 -88.06405 19558 ft 393 kts 201°
2026-05-06 22:19 41.27994 -88.07289 20147 ft 395 kts 202°
2026-05-06 22:19 41.25323 -88.08187 20709 ft 397 kts 202°
2026-05-06 22:19 41.22628 -88.09056 21271 ft 401 kts 201°
2026-05-06 22:20 41.19892 -88.09858 21784 ft 405 kts 201°
2026-05-06 22:20 41.17121 -88.10639 22274 ft 408 kts 200°
2026-05-06 22:20 41.14333 -88.11417 22803 ft 410 kts 201°
2026-05-06 22:20 41.11526 -88.12202 23300 ft 412 kts 201°
2026-05-06 22:21 41.08759 -88.12982 23813 ft 412 kts 201°
2026-05-06 22:21 41.05959 -88.13774 24316 ft 411 kts 202°
2026-05-06 22:21 41.03165 -88.14568 24812 ft 410 kts 202°
2026-05-06 22:21 41.00382 -88.15362 25272 ft 409 kts 203°
2026-05-06 22:22 40.97588 -88.16160 25711 ft 409 kts 204°
2026-05-06 22:22 40.94799 -88.16957 26142 ft 409 kts 204°
2026-05-06 22:22 40.92011 -88.17754 26565 ft 409 kts 204°
2026-05-06 22:22 40.89227 -88.18548 26930 ft 409 kts 205°
2026-05-06 22:23 40.86485 -88.19327 27434 ft 406 kts 206°
2026-05-06 22:23 40.83731 -88.20105 28007 ft 402 kts 206°
2026-05-06 22:23 40.81009 -88.20874 28612 ft 397 kts 206°
2026-05-06 22:23 40.78321 -88.21633 29236 ft 392 kts 207°
2026-05-06 22:24 40.75669 -88.22382 29863 ft 387 kts 207°
2026-05-06 22:24 40.73054 -88.23123 30405 ft 382 kts 208°
2026-05-06 22:24 40.70462 -88.23859 30815 ft 380 kts 208°
2026-05-06 22:24 40.67872 -88.24599 31135 ft 380 kts 208°
2026-05-06 22:25 40.65286 -88.25337 31468 ft 380 kts 208°
2026-05-06 22:25 40.62701 -88.26070 31855 ft 378 kts 208°
2026-05-06 22:25 40.60158 -88.26789 32257 ft 376 kts 208°
2026-05-06 22:25 40.57597 -88.27511 32641 ft 375 kts 209°
2026-05-06 22:26 40.55047 -88.28231 32991 ft 374 kts 209°
2026-05-06 22:26 40.52505 -88.28949 33352 ft 373 kts 209°
2026-05-06 22:26 40.49978 -88.29661 33712 ft 371 kts 209°
2026-05-06 22:26 40.48299 -88.30133 33964 ft 370 kts 209°
2026-05-06 22:27 40.44957 -88.31074 34306 ft 369 kts 209°
2026-05-06 22:27 40.43262 -88.31550 34546 ft 367 kts 209°
2026-05-06 22:27 40.40763 -88.32254 34770 ft 368 kts 209°
2026-05-06 22:27 40.38249 -88.32966 34902 ft 371 kts 209°
2026-05-06 22:28 40.35747 -88.33670 35105 ft 372 kts 209°
2026-05-06 22:28 40.33212 -88.34378 35351 ft 372 kts 208°
2026-05-06 22:28 40.30718 -88.35186 35550 ft 364 kts 213°
2026-05-06 22:28 40.28323 -88.36232 35721 ft 363 kts 214°
2026-05-06 22:29 40.25923 -88.37299 35932 ft 363 kts 214°
2026-05-06 22:29 40.23521 -88.38366 36090 ft 364 kts 214°
2026-05-06 22:29 40.21132 -88.39420 36451 ft 361 kts 214°
2026-05-06 22:29 40.18749 -88.40468 36680 ft 361 kts 214°
2026-05-06 22:30 40.16363 -88.41521 36799 ft 364 kts 214°
2026-05-06 22:30 40.13957 -88.42580 36993 ft 364 kts 214°
2026-05-06 22:30 40.11579 -88.43624 37125 ft 367 kts 213°
2026-05-06 22:30 40.09151 -88.44690 37190 ft 370 kts 213°
2026-05-06 22:31 40.04236 -88.46840 37419 ft 373 kts 213°
2026-05-06 22:31 40.01765 -88.47915 37529 ft 374 kts 213°
2026-05-06 22:31 39.99304 -88.48982 37829 ft 370 kts 213°
2026-05-06 22:32 39.96863 -88.50039 38036 ft 370 kts 213°
2026-05-06 22:32 39.94419 -88.51103 38040 ft 372 kts 213°
2026-05-06 22:32 39.89518 -88.53238 38053 ft 373 kts 213°
2026-05-06 22:33 39.84588 -88.55374 38053 ft 372 kts 213°
2026-05-06 22:33 39.79675 -88.57502 38015 ft 372 kts 213°
2026-05-06 22:34 39.74781 -88.59616 38042 ft 370 kts 214°
2026-05-06 22:34 39.69907 -88.61723 38051 ft 369 kts 214°
2026-05-06 22:35 39.65040 -88.63823 38054 ft 368 kts 214°
2026-05-06 22:35 39.60176 -88.65919 38054 ft 368 kts 214°
2026-05-06 22:36 39.55343 -88.67998 38007 ft 367 kts 214°
2026-05-06 22:36 39.50504 -88.70075 38042 ft 366 kts 214°
2026-05-06 22:37 39.45667 -88.72150 38049 ft 365 kts 214°
2026-05-06 22:37 39.40842 -88.74217 38055 ft 365 kts 214°
2026-05-06 22:38 39.36014 -88.76283 38051 ft 365 kts 214°
2026-05-06 22:38 39.31221 -88.78328 38055 ft 364 kts 214°
2026-05-06 22:39 39.26405 -88.80381 38053 ft 364 kts 214°
2026-05-06 22:39 39.21601 -88.82427 38051 ft 363 kts 214°
2026-05-06 22:40 39.16798 -88.84469 38051 ft 363 kts 214°
2026-05-06 22:40 39.11994 -88.86509 38060 ft 363 kts 214°
2026-05-06 22:41 39.04844 -88.89537 38053 ft 361 kts 214°
2026-05-06 22:42 39.00070 -88.91557 38058 ft 361 kts 214°
2026-05-06 22:42 38.95303 -88.93572 38057 ft 361 kts 214°
2026-05-06 22:43 38.90523 -88.95588 38057 ft 361 kts 214°
2026-05-06 22:43 38.85778 -88.97586 38037 ft 359 kts 215°
2026-05-06 22:44 38.81024 -88.99585 38051 ft 359 kts 215°
2026-05-06 22:44 38.76273 -89.01582 38057 ft 359 kts 215°
2026-05-06 22:45 38.71516 -89.03578 38058 ft 359 kts 215°
2026-05-06 22:45 38.66786 -89.05560 38066 ft 359 kts 215°
2026-05-06 22:46 38.62034 -89.07547 38059 ft 358 kts 215°
2026-05-06 22:46 38.57286 -89.09531 38066 ft 359 kts 215°
2026-05-06 22:47 38.52555 -89.11505 38066 ft 359 kts 215°
2026-05-06 22:47 38.47788 -89.13492 38064 ft 360 kts 215°
2026-05-06 22:48 38.43029 -89.15471 38067 ft 360 kts 214°
2026-05-06 22:48 38.40566 -89.16312 38059 ft 373 kts 209°
2026-05-06 22:48 38.38017 -89.16958 38066 ft 374 kts 209°
2026-05-06 22:49 38.32939 -89.18216 38063 ft 373 kts 209°
2026-05-06 22:49 38.27839 -89.19486 38062 ft 373 kts 209°
2026-05-06 22:50 38.22743 -89.20764 38058 ft 373 kts 209°
2026-05-06 22:50 38.17658 -89.22041 37997 ft 372 kts 209°
2026-05-06 22:51 38.12583 -89.23315 38048 ft 371 kts 209°
2026-05-06 22:51 38.07513 -89.24590 38063 ft 371 kts 209°
2026-05-06 22:52 38.02469 -89.25856 38065 ft 372 kts 209°
2026-05-06 22:52 37.97395 -89.27126 38057 ft 372 kts 209°
2026-05-06 22:53 37.92326 -89.28393 38060 ft 371 kts 209°
2026-05-06 22:53 37.87247 -89.29661 38065 ft 371 kts 209°
2026-05-06 22:54 37.82201 -89.30920 38065 ft 372 kts 209°
2026-05-06 22:54 37.77110 -89.32188 38067 ft 372 kts 209°
2026-05-06 22:55 37.72017 -89.33454 38064 ft 373 kts 209°
2026-05-06 22:55 37.66966 -89.34707 38058 ft 372 kts 208°
2026-05-06 22:56 37.61879 -89.35969 38059 ft 373 kts 208°
2026-05-06 22:56 37.56782 -89.37232 38068 ft 373 kts 208°
2026-05-06 22:57 37.51667 -89.38498 38051 ft 375 kts 208°
2026-05-06 22:57 37.46575 -89.39755 38012 ft 375 kts 208°
2026-05-06 22:58 37.41452 -89.41017 38055 ft 376 kts 208°
2026-05-06 22:58 37.36307 -89.42285 38054 ft 377 kts 208°
2026-05-06 22:59 37.31166 -89.43548 38057 ft 377 kts 208°
2026-05-06 22:59 37.26015 -89.44812 38038 ft 378 kts 208°
2026-05-06 23:00 37.20888 -89.46069 37986 ft 377 kts 208°
2026-05-06 23:00 37.15727 -89.47332 38022 ft 378 kts 208°
2026-05-06 23:01 37.10560 -89.48595 38035 ft 378 kts 208°
2026-05-06 23:01 37.05385 -89.49860 38029 ft 379 kts 208°
2026-05-06 23:02 37.00207 -89.51122 38020 ft 379 kts 208°
2026-05-06 23:02 36.95008 -89.52391 38000 ft 382 kts 208°
2026-05-06 23:03 36.89816 -89.53654 38016 ft 383 kts 207°
2026-05-06 23:03 36.84585 -89.54922 38019 ft 383 kts 207°
2026-05-06 23:04 36.79346 -89.56191 38021 ft 383 kts 207°
2026-05-06 23:04 36.74095 -89.57462 37971 ft 383 kts 207°
2026-05-06 23:05 36.68858 -89.58728 38023 ft 384 kts 207°
2026-05-06 23:05 36.63607 -89.59996 38044 ft 385 kts 207°
2026-05-06 23:06 36.58377 -89.61258 38048 ft 385 kts 207°
2026-05-06 23:06 36.53097 -89.62529 38050 ft 386 kts 207°
2026-05-06 23:07 36.47846 -89.63791 38015 ft 386 kts 207°
2026-05-06 23:07 36.42574 -89.65056 38044 ft 386 kts 207°
2026-05-06 23:08 36.37291 -89.66323 38053 ft 387 kts 207°
2026-05-06 23:08 36.31995 -89.67592 38050 ft 387 kts 207°
2026-05-06 23:09 36.26693 -89.68860 38057 ft 388 kts 207°
2026-05-06 23:09 36.21373 -89.70130 38039 ft 388 kts 207°
2026-05-06 23:10 36.16055 -89.71398 38046 ft 389 kts 207°
2026-05-06 23:10 36.10767 -89.72657 38038 ft 390 kts 207°
2026-05-06 23:11 36.05436 -89.73925 38028 ft 390 kts 207°
2026-05-06 23:11 36.00093 -89.75193 38025 ft 390 kts 207°
2026-05-06 23:12 35.94765 -89.76456 38024 ft 390 kts 207°
2026-05-06 23:12 35.89439 -89.77717 38025 ft 390 kts 207°
2026-05-06 23:13 35.84107 -89.78978 38041 ft 390 kts 207°
2026-05-06 23:13 35.78780 -89.80236 38047 ft 390 kts 207°
2026-05-06 23:14 35.73452 -89.81493 37986 ft 389 kts 206°
2026-05-06 23:14 35.68171 -89.82736 38028 ft 389 kts 206°
2026-05-06 23:15 35.62848 -89.83990 38035 ft 390 kts 206°
2026-05-06 23:15 35.58410 -89.85033 38024 ft 391 kts 206°
2026-05-06 23:16 35.53066 -89.86287 38015 ft 391 kts 206°
2026-05-06 23:16 35.47717 -89.87540 37986 ft 391 kts 206°
2026-05-06 23:17 35.42395 -89.88785 38005 ft 392 kts 206°
2026-05-06 23:17 35.37036 -89.90038 38007 ft 392 kts 206°
2026-05-06 23:18 35.31660 -89.91293 38010 ft 393 kts 206°
2026-05-06 23:18 35.26285 -89.92545 38010 ft 393 kts 206°
2026-05-06 23:19 35.20905 -89.93797 38007 ft 394 kts 206°
2026-05-06 23:19 35.15490 -89.95058 38030 ft 397 kts 206°
2026-05-06 23:20 35.10049 -89.96321 38030 ft 399 kts 206°
2026-05-06 23:20 35.04581 -89.97587 38032 ft 400 kts 205°
2026-05-06 23:21 34.99021 -89.98600 37978 ft 412 kts 199°
2026-05-06 23:21 34.93273 -89.99028 38018 ft 414 kts 198°
2026-05-06 23:22 34.87546 -89.99415 38022 ft 415 kts 198°
2026-05-06 23:22 34.81779 -89.99830 38024 ft 415 kts 199°
2026-05-06 23:23 34.76021 -90.00264 38008 ft 414 kts 199°
2026-05-06 23:23 34.70278 -90.00703 37993 ft 412 kts 198°
2026-05-06 23:24 34.64550 -90.01142 38002 ft 412 kts 198°
2026-05-06 23:24 34.58830 -90.01581 38009 ft 412 kts 198°
2026-05-06 23:25 34.53106 -90.02021 38013 ft 412 kts 198°
2026-05-06 23:25 34.47373 -90.02460 37938 ft 413 kts 198°
2026-05-06 23:26 34.41679 -90.02893 37991 ft 412 kts 198°
2026-05-06 23:26 34.35950 -90.03330 37990 ft 412 kts 198°
2026-05-06 23:27 34.30221 -90.03766 37989 ft 412 kts 198°
2026-05-06 23:27 34.24490 -90.04202 38002 ft 413 kts 198°
2026-05-06 23:28 34.18742 -90.04641 37973 ft 414 kts 197°
2026-05-06 23:28 34.12988 -90.05075 37986 ft 414 kts 197°
2026-05-06 23:29 34.07232 -90.05510 37987 ft 414 kts 197°
2026-05-06 23:29 34.01502 -90.05943 37979 ft 414 kts 197°
2026-05-06 23:30 33.95755 -90.06375 37974 ft 413 kts 197°
2026-05-06 23:30 33.90026 -90.06806 37971 ft 412 kts 197°
2026-05-06 23:31 33.84293 -90.07239 37974 ft 412 kts 197°
2026-05-06 23:31 33.78571 -90.07670 37971 ft 412 kts 197°
2026-05-06 23:32 33.72871 -90.08098 37973 ft 412 kts 197°
2026-05-06 23:32 33.67137 -90.08529 37917 ft 413 kts 196°
2026-05-06 23:33 33.61405 -90.08957 37954 ft 412 kts 196°
2026-05-06 23:33 33.55674 -90.09386 37980 ft 413 kts 196°
2026-05-06 23:34 33.49941 -90.09814 37970 ft 413 kts 196°
2026-05-06 23:34 33.44200 -90.10242 37980 ft 413 kts 196°
2026-05-06 23:35 33.38452 -90.10671 37975 ft 414 kts 196°
2026-05-06 23:35 33.32684 -90.11100 37962 ft 414 kts 196°
2026-05-06 23:36 33.26932 -90.11526 37958 ft 414 kts 196°
2026-05-06 23:36 33.21178 -90.11952 37951 ft 414 kts 196°
2026-05-06 23:37 33.15473 -90.12375 37907 ft 413 kts 196°
2026-05-06 23:37 33.09736 -90.12799 37929 ft 413 kts 195°
2026-05-06 23:38 33.04009 -90.13222 37934 ft 412 kts 195°
2026-05-06 23:38 32.98278 -90.13646 37935 ft 412 kts 195°
2026-05-06 23:39 32.92553 -90.14068 37928 ft 412 kts 195°
2026-05-06 23:39 32.86818 -90.14491 37881 ft 412 kts 194°
2026-05-06 23:40 32.81133 -90.14908 37923 ft 412 kts 194°
2026-05-06 23:40 32.75393 -90.15331 37932 ft 414 kts 194°
2026-05-06 23:41 32.69633 -90.15754 37929 ft 415 kts 194°
2026-05-06 23:41 32.63853 -90.16178 37926 ft 416 kts 194°
2026-05-06 23:42 32.58062 -90.16601 37924 ft 417 kts 192°
2026-05-06 23:42 32.52231 -90.17028 37932 ft 421 kts 192°
2026-05-06 23:43 32.46358 -90.17457 37933 ft 424 kts 192°
2026-05-06 23:43 32.40488 -90.17885 37931 ft 427 kts 192°
2026-05-06 23:44 32.34512 -90.18318 37887 ft 428 kts 192°
2026-05-06 23:44 32.28575 -90.18750 37930 ft 431 kts 191°
2026-05-06 23:45 32.22561 -90.19187 37942 ft 434 kts 191°
2026-05-06 23:45 32.16514 -90.19624 37939 ft 436 kts 191°
2026-05-06 23:46 32.10474 -90.20061 37931 ft 438 kts 190°
2026-05-06 23:46 32.04385 -90.20500 37899 ft 438 kts 190°
2026-05-06 23:47 31.98290 -90.20939 37916 ft 439 kts 190°
2026-05-06 23:47 31.92179 -90.21379 37929 ft 440 kts 190°
2026-05-06 23:48 31.86068 -90.21819 37922 ft 440 kts 190°
2026-05-06 23:48 31.79951 -90.22258 37926 ft 439 kts 190°
2026-05-06 23:49 31.73845 -90.22697 37923 ft 440 kts 191°
2026-05-06 23:49 31.67727 -90.23136 37933 ft 441 kts 191°
2026-05-06 23:50 31.61580 -90.23577 37934 ft 443 kts 191°
2026-05-06 23:50 31.52366 -90.24235 37936 ft 444 kts 191°
2026-05-06 23:51 31.46191 -90.24675 37931 ft 445 kts 191°
2026-05-06 23:51 31.39999 -90.25117 37929 ft 447 kts 191°
2026-05-06 23:52 31.33781 -90.25560 37931 ft 448 kts 191°
2026-05-06 23:52 31.27514 -90.25740 37928 ft 455 kts 185°
2026-05-06 23:53 31.21169 -90.25245 37911 ft 458 kts 184°
2026-05-06 23:53 31.14816 -90.24684 37919 ft 458 kts 184°
2026-05-06 23:54 31.08459 -90.24175 37923 ft 458 kts 185°
2026-05-06 23:54 31.02107 -90.23700 37929 ft 457 kts 185°
2026-05-06 23:55 30.95753 -90.23234 37913 ft 457 kts 185°
2026-05-06 23:55 30.89396 -90.22767 37926 ft 457 kts 185°
2026-05-06 23:56 30.83030 -90.22300 37935 ft 458 kts 185°
2026-05-06 23:56 30.76663 -90.21832 37932 ft 458 kts 185°
2026-05-06 23:57 30.70334 -90.21367 37941 ft 459 kts 185°
2026-05-06 23:57 30.63962 -90.20900 37930 ft 459 kts 185°
2026-05-06 23:58 30.57587 -90.20433 37927 ft 459 kts 185°
2026-05-06 23:58 30.51211 -90.19966 37925 ft 458 kts 185°
2026-05-06 23:59 30.44846 -90.19501 37931 ft 458 kts 185°
2026-05-06 23:59 30.38479 -90.19038 37909 ft 458 kts 185°
2026-05-07 00:00 30.32177 -90.18578 37926 ft 456 kts 185°
2026-05-07 00:00 30.26873 -90.18194 37943 ft 456 kts 185°
2026-05-07 00:01 30.19522 -90.17665 37938 ft 455 kts 185°
2026-05-07 00:01 30.14269 -90.17288 37939 ft 455 kts 185°
2026-05-07 00:02 30.07953 -90.16834 37929 ft 454 kts 185°
2026-05-07 00:02 30.01648 -90.16382 37934 ft 453 kts 185°
2026-05-07 00:03 29.95355 -90.15931 37940 ft 453 kts 185°
2026-05-07 00:03 29.89057 -90.15481 37940 ft 453 kts 185°
2026-05-07 00:04 29.82810 -90.15034 37944 ft 452 kts 185°
2026-05-07 00:04 29.76529 -90.14586 37945 ft 452 kts 185°
2026-05-07 00:05 29.70253 -90.14139 37947 ft 452 kts 185°
2026-05-07 00:05 29.63980 -90.13692 37950 ft 452 kts 185°
2026-05-07 00:06 29.57694 -90.13246 37953 ft 452 kts 185°
2026-05-07 00:06 29.51407 -90.12799 37941 ft 453 kts 184°
2026-05-07 00:07 29.45118 -90.12353 37953 ft 453 kts 184°
2026-05-07 00:07 29.38824 -90.11907 37955 ft 453 kts 184°
2026-05-07 00:08 29.32566 -90.11464 37954 ft 454 kts 184°
2026-05-07 00:08 29.26255 -90.11018 37955 ft 454 kts 184°
2026-05-07 00:09 29.19942 -90.10572 37949 ft 454 kts 184°
2026-05-07 00:09 29.13624 -90.10156 37953 ft 454 kts 185°
2026-05-07 00:10 29.07313 -90.09813 37951 ft 454 kts 185°
2026-05-07 00:10 29.01029 -90.09479 37951 ft 455 kts 185°
2026-05-07 00:11 28.94707 -90.09133 37926 ft 455 kts 184°
2026-05-07 00:11 28.88365 -90.08782 37948 ft 455 kts 184°
2026-05-07 00:12 28.82032 -90.08431 37952 ft 456 kts 184°
2026-05-07 00:12 28.75725 -90.08081 37951 ft 456 kts 184°
2026-05-07 00:13 28.69342 -90.07728 37953 ft 456 kts 184°
2026-05-07 00:13 28.62998 -90.07378 37946 ft 456 kts 184°
2026-05-07 00:14 28.56687 -90.07030 37955 ft 456 kts 184°
2026-05-07 00:14 28.50338 -90.06681 37953 ft 457 kts 184°
2026-05-07 00:15 28.43992 -90.06331 37955 ft 457 kts 184°
2026-05-07 00:15 28.37636 -90.05982 37959 ft 457 kts 184°
2026-05-07 00:16 28.31286 -90.05634 37951 ft 456 kts 184°
2026-05-07 00:16 28.24972 -90.05287 37957 ft 457 kts 184°
2026-05-07 00:17 28.18623 -90.04921 37956 ft 457 kts 184°
2026-05-07 00:17 28.12278 -90.04543 37956 ft 457 kts 184°
2026-05-07 00:18 28.05914 -90.04166 37945 ft 457 kts 184°
2026-05-07 00:18 27.99573 -90.03793 37958 ft 456 kts 183°
2026-05-07 00:19 27.93226 -90.03420 37957 ft 456 kts 183°
2026-05-07 00:19 27.86883 -90.03049 37956 ft 456 kts 183°
2026-05-07 00:20 27.80581 -90.02680 37956 ft 456 kts 184°
2026-05-07 00:20 27.74235 -90.02309 37956 ft 456 kts 184°
2026-05-07 00:21 27.67887 -90.01939 37958 ft 456 kts 183°
2026-05-07 00:21 27.61543 -90.01569 37960 ft 456 kts 183°
2026-05-07 00:22 27.55243 -90.01202 37964 ft 456 kts 184°
2026-05-07 00:22 27.48905 -90.00833 37964 ft 456 kts 184°
2026-05-07 00:23 27.42564 -90.00465 37961 ft 456 kts 183°
2026-05-07 00:23 27.36232 -90.00097 37960 ft 455 kts 183°
2026-05-07 00:24 27.29907 -89.99730 37962 ft 455 kts 183°
2026-05-07 00:24 27.23576 -89.99364 37968 ft 455 kts 183°
2026-05-07 00:25 27.17250 -89.98998 37947 ft 455 kts 183°
2026-05-07 00:25 27.10923 -89.98633 37961 ft 455 kts 183°
2026-05-07 00:26 27.04590 -89.98267 37970 ft 455 kts 183°
2026-05-07 00:26 26.98292 -89.97904 37969 ft 456 kts 183°
2026-05-07 00:27 26.91946 -89.97539 37969 ft 457 kts 183°
2026-05-07 00:27 26.85594 -89.97174 37950 ft 457 kts 183°
2026-05-07 00:28 26.79240 -89.96808 37974 ft 457 kts 183°
2026-05-07 00:28 26.72875 -89.96443 37971 ft 458 kts 183°
2026-05-07 00:29 26.66548 -89.96080 37969 ft 458 kts 183°
2026-05-07 00:30 26.53801 -89.95351 37957 ft 458 kts 182°
2026-05-07 00:30 26.47430 -89.94987 37971 ft 458 kts 182°
2026-05-07 00:31 26.41094 -89.94625 37969 ft 458 kts 182°
2026-05-07 00:31 26.34722 -89.94262 37969 ft 458 kts 182°
2026-05-07 00:32 26.28344 -89.93904 37965 ft 458 kts 182°
2026-05-07 00:32 26.21970 -89.93548 37958 ft 458 kts 182°
2026-05-07 00:33 26.15600 -89.93193 37969 ft 458 kts 182°
2026-05-07 00:33 26.09226 -89.92838 37967 ft 458 kts 182°
2026-05-07 00:34 26.02839 -89.92482 37964 ft 459 kts 182°
2026-05-07 00:34 25.96505 -89.92129 37964 ft 459 kts 182°
2026-05-07 00:35 25.90128 -89.91775 37965 ft 458 kts 182°
2026-05-07 00:35 25.83754 -89.91420 37964 ft 458 kts 182°
2026-05-07 00:36 25.77378 -89.91067 37964 ft 458 kts 182°
2026-05-07 00:36 25.71000 -89.90713 37964 ft 458 kts 182°
2026-05-07 00:37 25.64623 -89.90360 37964 ft 458 kts 182°
2026-05-07 00:37 25.58254 -89.90008 37955 ft 458 kts 182°
2026-05-07 00:38 25.51887 -89.89656 37963 ft 458 kts 182°
2026-05-07 00:38 25.45518 -89.89304 37961 ft 458 kts 182°
2026-05-07 00:39 25.39146 -89.88953 37959 ft 458 kts 182°
2026-05-07 00:39 25.32770 -89.88602 37949 ft 458 kts 182°
2026-05-07 00:40 25.26439 -89.88254 37959 ft 458 kts 181°
2026-05-07 00:40 25.20067 -89.87904 37961 ft 459 kts 181°
2026-05-07 00:41 25.13689 -89.87553 37958 ft 459 kts 181°
2026-05-07 00:41 25.07303 -89.87203 37956 ft 460 kts 181°
2026-05-07 00:42 25.00912 -89.86853 37951 ft 460 kts 181°
2026-05-07 00:42 24.94514 -89.86503 37956 ft 460 kts 181°
2026-05-07 00:43 24.88117 -89.86153 37958 ft 460 kts 181°
2026-05-07 00:43 24.81719 -89.85804 37959 ft 460 kts 181°
2026-05-07 00:44 24.75367 -89.85457 37954 ft 460 kts 181°
2026-05-07 00:44 24.68970 -89.85108 37952 ft 460 kts 181°
2026-05-07 00:45 24.62568 -89.84760 37953 ft 460 kts 181°
2026-05-07 00:45 24.56178 -89.84412 37953 ft 460 kts 181°
2026-05-07 00:46 24.49784 -89.84064 37947 ft 460 kts 181°
2026-05-07 00:46 24.43424 -89.83730 37945 ft 460 kts 181°
2026-05-07 00:47 24.37027 -89.83407 37945 ft 460 kts 181°
2026-05-07 00:47 24.30637 -89.83084 37951 ft 459 kts 181°
2026-05-07 00:48 24.25331 -89.82815 37946 ft 459 kts 181°
2026-05-07 00:48 24.18955 -89.82491 37947 ft 459 kts 181°
2026-05-07 00:49 24.12572 -89.82167 37943 ft 459 kts 181°
2026-05-07 00:49 24.06192 -89.81843 37935 ft 459 kts 181°
2026-05-07 00:50 23.99810 -89.81519 37936 ft 458 kts 181°
2026-05-07 00:50 23.93432 -89.81196 37940 ft 458 kts 181°
2026-05-07 00:51 23.87055 -89.80874 37936 ft 458 kts 181°
2026-05-07 00:51 23.80720 -89.80554 37937 ft 458 kts 181°
2026-05-07 00:52 23.74358 -89.80231 37928 ft 458 kts 181°
2026-05-07 00:52 23.67992 -89.79896 37938 ft 457 kts 180°
2026-05-07 00:53 23.61631 -89.79556 37937 ft 457 kts 180°
2026-05-07 00:53 23.55324 -89.79221 37930 ft 457 kts 181°
2026-05-07 00:54 23.48977 -89.78885 37932 ft 456 kts 181°
2026-05-07 00:54 23.42630 -89.78550 37923 ft 456 kts 180°
2026-05-07 00:55 23.36287 -89.78215 37933 ft 456 kts 180°
2026-05-07 00:55 23.29950 -89.77881 37933 ft 455 kts 180°
2026-05-07 00:56 23.23618 -89.77548 37932 ft 455 kts 180°
2026-05-07 00:56 23.17289 -89.77215 37929 ft 455 kts 180°
2026-05-07 00:57 23.10997 -89.76884 37930 ft 455 kts 180°
2026-05-07 00:57 23.04677 -89.76552 37927 ft 454 kts 180°
2026-05-07 00:58 22.98358 -89.76220 37925 ft 454 kts 180°
2026-05-07 00:58 22.92051 -89.75890 37923 ft 454 kts 180°
2026-05-07 00:59 22.82578 -89.75393 37918 ft 454 kts 180°
2026-05-07 01:00 22.76266 -89.75063 37914 ft 453 kts 180°
2026-05-07 01:00 22.73160 -89.74740 37901 ft 457 kts 168°
2026-05-07 01:00 22.70197 -89.73456 37930 ft 463 kts 152°
2026-05-07 01:00 22.67658 -89.71289 37917 ft 469 kts 136°
2026-05-07 01:01 22.65676 -89.68466 37912 ft 475 kts 120°
2026-05-07 01:01 22.63423 -89.61719 37917 ft 479 kts 109°
2026-05-07 01:02 22.61498 -89.54809 37916 ft 480 kts 109°
2026-05-07 01:02 22.59539 -89.47898 37915 ft 480 kts 109°
2026-05-07 01:03 22.57523 -89.40992 37917 ft 481 kts 110°
2026-05-07 01:03 22.55495 -89.34136 37920 ft 481 kts 110°
2026-05-07 01:04 22.53449 -89.27239 37918 ft 481 kts 110°
2026-05-07 01:04 22.51402 -89.20342 37924 ft 482 kts 110°
2026-05-07 01:05 22.49352 -89.13440 37922 ft 482 kts 110°
2026-05-07 01:05 22.47300 -89.06543 37930 ft 482 kts 110°
2026-05-07 01:06 22.45243 -88.99643 37921 ft 482 kts 110°
2026-05-07 01:06 22.43186 -88.92753 37932 ft 481 kts 110°
2026-05-07 01:07 22.41143 -88.85919 37923 ft 480 kts 110°
2026-05-07 01:07 22.39088 -88.79062 37927 ft 480 kts 110°
2026-05-07 01:08 22.37028 -88.72199 37935 ft 480 kts 110°
2026-05-07 01:08 22.34965 -88.65336 37937 ft 480 kts 110°
2026-05-07 01:09 22.32896 -88.58466 37939 ft 481 kts 110°
2026-05-07 01:09 22.30810 -88.51553 37360 ft 487 kts 110°
2026-05-07 01:09 22.29762 -88.48081 36776 ft 484 kts 110°
2026-05-07 01:10 22.28733 -88.44675 36167 ft 483 kts 110°
2026-05-07 01:10 22.27690 -88.41225 35509 ft 483 kts 110°
2026-05-07 01:10 22.26642 -88.37766 34803 ft 485 kts 110°
2026-05-07 01:10 22.25591 -88.34299 34066 ft 488 kts 109°
2026-05-07 01:11 22.24533 -88.30810 33241 ft 489 kts 110°
2026-05-07 01:11 22.23472 -88.27315 32433 ft 491 kts 110°
2026-05-07 01:11 22.22406 -88.23805 31615 ft 492 kts 110°
2026-05-07 01:11 22.21336 -88.20288 30851 ft 492 kts 110°
2026-05-07 01:12 22.20266 -88.16769 29995 ft 494 kts 110°
2026-05-07 01:12 22.19190 -88.13237 28926 ft 497 kts 110°
2026-05-07 01:12 22.18110 -88.09695 27887 ft 498 kts 110°
2026-05-07 01:12 22.17041 -88.06187 26837 ft 499 kts 110°
2026-05-07 01:13 22.15952 -88.02621 25780 ft 499 kts 109°
2026-05-07 01:13 22.14832 -87.99105 24986 ft 492 kts 114°
2026-05-07 01:13 22.13297 -87.95847 24237 ft 483 kts 124°
2026-05-07 01:13 22.11344 -87.92953 23605 ft 472 kts 131°
2026-05-07 01:14 22.09086 -87.90440 22879 ft 461 kts 139°
2026-05-07 01:14 22.06635 -87.88232 21994 ft 456 kts 141°
2026-05-07 01:14 22.04201 -87.86076 21203 ft 450 kts 140°
2026-05-07 01:14 22.01792 -87.83938 20402 ft 446 kts 140°
2026-05-07 01:15 21.99443 -87.81842 19638 ft 441 kts 140°
2026-05-07 01:15 21.97096 -87.79734 18867 ft 438 kts 139°
2026-05-07 01:15 21.94771 -87.77637 18079 ft 435 kts 139°
2026-05-07 01:15 21.92459 -87.75547 17243 ft 431 kts 138°
2026-05-07 01:16 21.90174 -87.73482 16485 ft 426 kts 137°
2026-05-07 01:16 21.87916 -87.71439 15752 ft 421 kts 138°
2026-05-07 01:16 21.85689 -87.69426 15039 ft 416 kts 138°
2026-05-07 01:16 21.83480 -87.67430 14306 ft 413 kts 137°
2026-05-07 01:17 21.81284 -87.65447 13547 ft 410 kts 137°
2026-05-07 01:17 21.79109 -87.63482 12765 ft 406 kts 137°
2026-05-07 01:17 21.76987 -87.61567 12084 ft 400 kts 138°
2026-05-07 01:17 21.74860 -87.59648 11375 ft 396 kts 138°
2026-05-07 01:18 21.72782 -87.57776 11130 ft 380 kts 138°
2026-05-07 01:18 21.70798 -87.55991 10942 ft 364 kts 138°
2026-05-07 01:18 21.68895 -87.54278 10791 ft 349 kts 138°
2026-05-07 01:18 21.67069 -87.52635 10654 ft 336 kts 138°
2026-05-07 01:19 21.65311 -87.51052 10500 ft 323 kts 138°
2026-05-07 01:19 21.63617 -87.49528 10366 ft 312 kts 138°
2026-05-07 01:19 21.61985 -87.48059 10224 ft 301 kts 138°
2026-05-07 01:19 21.60402 -87.46634 10118 ft 292 kts 138°
2026-05-07 01:20 21.58871 -87.45257 9994 ft 283 kts 138°
2026-05-07 01:20 21.57367 -87.43905 9700 ft 281 kts 138°
2026-05-07 01:20 21.55896 -87.42581 9405 ft 279 kts 138°
2026-05-07 01:20 21.54413 -87.41248 9100 ft 277 kts 138°
2026-05-07 01:21 21.52939 -87.39923 8809 ft 275 kts 138°
2026-05-07 01:21 21.51475 -87.38607 8513 ft 274 kts 138°
2026-05-07 01:21 21.50015 -87.37297 8214 ft 273 kts 138°
2026-05-07 01:21 21.48563 -87.35993 7921 ft 271 kts 138°
2026-05-07 01:22 21.47120 -87.34698 7625 ft 269 kts 138°
2026-05-07 01:22 21.45686 -87.33412 7336 ft 267 kts 138°
2026-05-07 01:22 21.44263 -87.32135 7039 ft 266 kts 139°
2026-05-07 01:22 21.42847 -87.30865 6754 ft 265 kts 139°
2026-05-07 01:23 21.41438 -87.29602 6464 ft 264 kts 139°
2026-05-07 01:23 21.40033 -87.28343 6169 ft 263 kts 139°
2026-05-07 01:23 21.38633 -87.27089 5864 ft 262 kts 140°
2026-05-07 01:23 21.37255 -87.25854 5575 ft 261 kts 140°
2026-05-07 01:24 21.35866 -87.24611 5295 ft 259 kts 140°
2026-05-07 01:24 21.34486 -87.23375 5011 ft 258 kts 140°
2026-05-07 01:24 21.33113 -87.22146 4720 ft 256 kts 140°
2026-05-07 01:24 21.31745 -87.20923 4417 ft 255 kts 140°
2026-05-07 01:25 21.30388 -87.19711 4113 ft 251 kts 140°
2026-05-07 01:25 21.28918 -87.18753 3741 ft 247 kts 158°
2026-05-07 01:25 21.27307 -87.18166 3392 ft 242 kts 159°
2026-05-07 01:25 21.25725 -87.17573 3031 ft 240 kts 159°
2026-05-07 01:26 21.24144 -87.16970 2673 ft 242 kts 158°
2026-05-07 01:26 21.22574 -87.16368 2310 ft 237 kts 158°
2026-05-07 01:26 21.21168 -87.15518 2033 ft 230 kts 136°
2026-05-07 01:26 21.20116 -87.14196 2020 ft 236 kts 126°
2026-05-07 01:27 21.19215 -87.12728 1991 ft 233 kts 124°
2026-05-07 01:27 21.18371 -87.11326 1974 ft 221 kts 124°
2026-05-07 01:27 21.17554 -87.09988 1967 ft 208 kts 124°
2026-05-07 01:27 21.16781 -87.08733 1976 ft 195 kts 125°
2026-05-07 01:28 21.16052 -87.07556 1990 ft 183 kts 125°
2026-05-07 01:28 21.15376 -87.06465 1929 ft 167 kts 125°
2026-05-07 01:28 21.14763 -87.05480 1865 ft 150 kts 125°
2026-05-07 01:28 21.14199 -87.04574 1834 ft 141 kts 126°
2026-05-07 01:29 21.13664 -87.03716 1779 ft 137 kts 126°
2026-05-07 01:29 21.13135 -87.02868 1752 ft 134 kts 126°
2026-05-07 01:29 21.12632 -87.02061 1705 ft 128 kts 126°
2026-05-07 01:29 21.12142 -87.01276 1650 ft 125 kts 126°
2026-05-07 01:30 21.11660 -87.00503 1606 ft 124 kts 126°
2026-05-07 01:30 21.11178 -86.99731 1570 ft 125 kts 126°
2026-05-07 01:30 21.10691 -86.98951 1528 ft 127 kts 126°
2026-05-07 01:30 21.10202 -86.98168 1475 ft 126 kts 126°
2026-05-07 01:31 21.09721 -86.97399 1437 ft 126 kts 126°
2026-05-07 01:31 21.09232 -86.96617 1409 ft 126 kts 126°
2026-05-07 01:31 21.08744 -86.95836 1369 ft 126 kts 126°
2026-05-07 01:31 21.08252 -86.95051 1280 ft 129 kts 126°
2026-05-07 01:32 21.07748 -86.94244 1138 ft 127 kts 127°
2026-05-07 01:32 21.07270 -86.93478 984 ft 121 kts 127°
2026-05-07 01:32 21.06783 -86.92705 867 ft 131 kts 125°
2026-05-07 01:32 21.06267 -86.91877 720 ft 135 kts 125°
2026-05-07 01:33 21.05746 -86.91043 503 ft 134 kts 125°
2026-05-07 01:33 21.05216 -86.90201 238 ft 138 kts 124°
2026-05-07 01:33 21.04692 -86.89354 115 ft 134 kts 123°
2026-05-07 01:33 21.04177 -86.88524 28 ft 128 kts 125°
2026-05-07 01:34 21.03761 -86.87864 21 ft 87 kts 124°
2026-05-07 01:34 21.03545 -86.87524 22 ft 26 kts 123°
2026-05-07 01:34 21.03476 -86.87398 20 ft 8 kts 90°
2026-05-07 01:34 21.03518 -86.87367 21 ft 8 kts 357°
2026-05-07 01:35 21.03571 -86.87385 21 ft 8 kts 334°
2026-05-07 01:35 21.03627 -86.87417 21 ft 10 kts 331°
2026-05-07 01:35 21.03685 -86.87451 21 ft 10 kts 325°
2026-05-07 01:35 21.03745 -86.87530 20 ft 17 kts 303°
2026-05-07 01:36 21.03809 -86.87638 21 ft 17 kts 301°
2026-05-07 01:36 21.03873 -86.87741 21 ft 16 kts 305°
2026-05-07 01:36 21.03936 -86.87837 21 ft 16 kts 305°
2026-05-07 01:36 21.03997 -86.87931 21 ft 15 kts 304°
2026-05-07 01:37 21.04057 -86.88026 21 ft 17 kts 302°
2026-05-07 01:37 21.04130 -86.88143 21 ft 19 kts 304°
2026-05-07 01:37 21.04202 -86.88260 22 ft 19 kts 304°
2026-05-07 01:37 21.04255 -86.88343 23 ft 24 kts 304°
2026-05-07 01:38 21.04350 -86.88494 25 ft 21 kts 304°
2026-05-07 01:38 21.04419 -86.88598 25 ft 12 kts 323°
2026-05-07 01:38 21.04500 -86.88588 24 ft 12 kts 19°
2026-05-07 01:38 21.04573 -86.88546 24 ft 13 kts 32°
2026-05-07 01:39 21.04653 -86.88489 25 ft 14 kts 34°
2026-05-07 01:39 21.04732 -86.88434 23 ft 13 kts 30°
2026-05-07 01:39 21.04773 -86.88372 23 ft 9 kts 100°
2026-05-07 01:39 21.04743 -86.88324 23 ft 4 kts 141°
2026-05-07 01:40 21.04738 -86.88317 23 ft 0 kts 129°